Погода в Мантурово

Россия / Курская область     51°27′11″N   37°07′38″E
темп.,
°C
ветер,
м/с
пор.,
м/с
влажн.,
%
обл.,
%
осадки,
мм/ч
давл.,
гПа
погр.,
м
4 марта, чт
чт400:00−2з6139337 0.0 1018416
03:00−2з6119437 0.0 1017337
06:00−4зюз6139321 0.0 1015287
09:00−3зюз7138911 0.0 1013422
12:000зюз814860 0.0 1011669
15:00+2зюз815910 0.0 1008596
18:00+1зюз714914 0.0 1006490
21:00+1з7139749 0.1 1005660
5 марта, пт
пт500:00+1з51298100 0.4 1005477
03:00+1з61197100 0.5 1005485
06:000сз5993100 0.1 1007522
09:00−1зсз5785100 0.2 1009768
12:00−1с348997 0.1 1011454
15:00−1с338397 0.1 1012458
18:00−2с2290100 0.0 101357
21:00−3с119099 0.0 101521
6 марта, сб
сб600:00−3с2290100 0.0 101686
03:00−4с2393100 0.0 101698
06:00−5с2393100 0.0 1016121
09:00−5сз3589100 0.0 1016256
12:00−4сз578768 0.1 1017613
15:00−4сз697784 0.1 10161018
18:00−5зсз6118580 0.1 1017894
21:00−6сз7128389 0.4 1020790
7 марта, вс
вс700:00−8сз5108127 0.0 1021443
03:00−8з498714 0.0 1021305
06:00−7зюз511850 0.0 1020385
09:00−5зюз8147138 0.0 1018802
12:00−2зюз101660100 0.0 10141142
15:00−1зюз111861100 0.0 10111371
18:00−2зюз101881100 0.3 10081240
21:00−1зюз91781100 0.4 1008960
8 марта, пн
пн800:00−2зюз8168390 0.0 1007771
03:00−2зюз8148895 0.1 1006879
06:00−2зюз91594100 0.3 1004862
09:00−2зсз81289100 0.9 10051001
12:00−4сз81176100 0.1 10081193
15:00−4зсз575680 0.1 1011881
18:00−6сз36740 0.0 1012456
21:00−7сз12790 0.0 101477